{"data":{"norad_id":89101,"intl_designator":"","name":"UNKNOWN","alt_names":[],"object_type":"UNKNOWN","status":"UNKNOWN","operator":null,"country":null,"launch_date":null,"launch_site_code":null,"launch_vehicle":null,"mission":null,"orbit_class":"UNKNOWN","rcs_meters":null,"size_class":null,"mass_kg":null,"dimensions":null,"purposes":[],"wikipedia_slug":null,"has_3d_model":false,"image_url":null,"decayed_at":null,"tle_current":{"epoch":"2026-09-10T23:52:43.220352Z","epoch_age_seconds":835583,"freshness":"AGED","line1":"1 89101U          26253.99494468 -.00000354  00000+0 -92434-3 0  9998","line2":"2 89101 100.4799 187.3414 0146065 221.7880 137.1997 13.04062739590331","mean_motion":13.04062739,"eccentricity":0.0146065,"inclination_deg":100.4799,"raan_deg":187.3414,"arg_perigee_deg":221.788,"mean_anomaly_deg":137.1997,"bstar":-0.00092434,"rev_number":59033,"period_min":110.42413504616,"perigee_km":1134.8483823583,"apogee_km":1357.5785322678,"semimajor_km":7624.350457313,"source":"CELESTRAK","updated_at":"2026-09-20T09:00:32.482227Z"}}}